FW4387 Weather Reports


Display with metric or nautical units.
time (UTC)temp
F
wind
direction
speed
MPH
gust
MPH
rain 1hr
in
rain 24hr
in
rain mn
in
humidity
%
barometer
mb
20260506234506 54 0.0 0.0 0.00 0.47 0.00 58 1011.8
20260506233005 54 0.0 0.0 0.00 0.49 0.00 57 1011.6
20260506231504 55 0.0 0.0 0.00 0.49 0.00 59 1012.1
20260506230006 55 0.0 0.0 0.00 0.49 0.00 59 1012.1
20260506224504 55 0.0 0.0 0.00 0.49 0.00 58 1012.1
20260506223004 55 0.0 0.0 0.00 0.56 0.00 59 1012.3
20260506221502 56 0.0 0.0 0.00 0.56 0.00 56 1012.3
20260506214600 56 0.0 0.0 0.00 0.56 0.00 56 1011.6
20260506213101 56 0.0 0.0 0.00 0.56 0.00 58 1011.5
20260506211558 56 0.0 0.0 0.00 0.63 0.00 57 1011.4
20260506210058 56 0.0 0.0 0.00 0.63 0.00 59 1011.4
20260506204600 56 0.0 0.0 0.00 0.63 0.00 58 1011.4
20260506203057 57 0.0 0.0 0.00 0.63 0.00 58 1011.4
20260506201557 57 0.0 0.0 0.00 0.63 0.00 56 1011.2
20260506200059 57 0.0 0.0 0.00 0.63 0.00 56 1011.3
20260506194553 57 0.0 0.0 0.00 0.63 0.00 57 1011.0
20260506193052 57 0.0 0.0 0.00 0.63 0.00 57 1011.1
20260506191553 59 0.0 0.0 0.00 0.63 0.00 58 1011.0
20260506190054 60 0.0 0.0 0.00 0.63 0.00 57 1011.0
20260506184552 59 0.0 0.0 0.00 0.63 0.00 55 1010.9
20260506183050 59 0.0 0.0 0.00 0.63 0.00 57 1010.9
20260506181548 59 0.0 0.0 0.00 0.63 0.00 57 1011.0
20260506180048 59 0.0 0.0 0.00 0.63 0.00 59 1011.0
20260506174547 59 0.0 0.0 0.00 0.63 0.00 59 1011.0
20260506173121 58 0.0 0.0 0.00 0.63 0.00 61 1011.0
20260506171544 58 0.0 0.0 0.00 0.63 0.00 62 1010.9
20260506170046 58 0.0 0.0 0.00 0.63 0.00 61 1011.0
20260506164548 58 0.0 0.0 0.00 0.63 0.00 66 1010.9
20260506163042 57 0.0 0.0 0.00 0.63 0.00 65 1011.1
20260506161538 57 0.0 0.0 0.00 0.63 0.00 67 1011.1
20260506160035 56 0.0 0.0 0.00 0.63 0.00 70 1010.8
20260506154533 55 0.0 0.0 0.00 0.63 0.00 71 1010.6
20260506153030 54 0.0 0.0 0.00 0.63 0.00 74 1010.5
20260506151528 53 0.0 0.0 0.00 0.63 0.00 74 1010.4
20260506150024 52 0.0 0.0 0.00 0.63 0.00 79 1010.0
20260506144522 50 0.0 0.0 0.00 0.63 0.00 80 1010.2
20260506143025 50 0.0 0.0 0.00 0.63 0.00 82 1010.2
20260506141518 50 0.0 0.0 0.00 0.63 0.00 85 1009.8
20260506140015 49 0.0 0.0 0.00 0.63 0.00 87 1009.4
20260506134513 48 0.0 0.0 0.00 0.63 0.00 89 1009.5
20260506133009 48 0.0 0.0 0.00 0.63 0.00 92 1009.1
20260506131609 47 0.0 0.0 0.00 0.63 0.00 93 1009.0
20260506130005 47 0.0 0.0 0.00 0.63 0.00 94 1009.2
20260506124504 46 0.0 0.0 0.00 0.63 0.00 94 1009.1
20260506123101 47 0.0 0.0 0.00 0.63 0.00 95 1008.6
20260506121559 47 0.0 0.0 0.00 0.63 0.63 95 1008.2
20260506120107 46 0.0 0.0 0.00 0.63 0.63 95 1008.2
20260506114558 46 0.0 0.0 0.00 0.63 0.63 94 1008.2
20260506113058 46 0.0 0.0 0.00 0.63 0.63 94 1008.3
20260506111554 46 0.0 0.0 0.00 0.63 0.63 94 1007.0
20260506110057 46 0.0 0.0 0.01 0.63 0.63 94 1006.8
20260506104556 46 0.0 0.0 0.01 0.63 0.63 95 1006.9
20260506103057 46 0.0 0.0 0.01 0.63 0.63 95 1007.1
20260506101559 46 0.0 0.0 0.01 0.63 0.63 95 1006.8
20260506100109 46 0.0 0.0 0.01 0.62 0.62 94 1006.1
20260506094551 46 0.0 0.0 0.01 0.62 0.62 94 1006.2
20260506093051 46 0.0 0.0 0.03 0.62 0.62 94 1005.8
20260506091546 47 0.0 0.0 0.04 0.62 0.62 94 1006.4
20260506090046 47 0.0 0.0 0.05 0.62 0.62 94 1005.6
20260506084607 47 0.0 0.0 0.04 0.61 0.61 94 1006.2
20260506083045 47 0.0 0.0 0.03 0.60 0.60 94 1006.1
20260506081550 47 0.0 0.0 0.02 0.57 0.57 94 1005.8
20260506073047 47 0.0 0.0 0.06 0.56 0.56 94 1005.3
20260506071541 47 0.0 0.0 0.07 0.56 0.56 94 1005.4
20260506061536 49 0.0 0.0 0.06 0.49 0.49 94 1005.6
20260506044608 50 0.0 0.0 0.01 0.42 0.42 94 1005.8
20260506043032 50 0.0 0.0 0.02 0.42 0.42 94 1005.5
20260506041529 51 0.0 0.0 0.03 0.42 0.42 94 1005.7
20260506040030 51 0.0 0.0 0.08 0.42 0.42 94 1005.8
20260506034551 51 0.0 0.0 0.09 0.42 0.42 94 1006.0
20260506033024 52 0.0 0.0 0.08 0.40 0.40 94 1006.1
20260506031521 54 0.0 0.0 0.09 0.39 0.39 94 1006.3
20260506030016 56 0.0 0.0 0.08 0.35 0.35 94 1006.5
20260506024515 59 0.0 0.0 0.08 0.33 0.33 94 1006.5
20260506023014 59 0.0 0.0 0.09 0.32 0.32 95 1005.9
20260506021514 59 0.0 0.0 0.08 0.30 0.30 95 1006.0
20260506020014 59 0.0 0.0 0.08 0.28 0.28 95 1006.1
20260506014517 59 0.0 0.0 0.05 0.26 0.26 95 1006.0
20260506013013 59 0.0 0.0 0.04 0.24 0.24 95 1005.8
20260506011515 59 0.0 0.0 0.03 0.22 0.22 95 1005.7
20260506010013 60 0.0 0.0 0.04 0.22 0.22 95 1005.4
20260506004526 60 0.0 0.0 0.04 0.21 0.21 95 1005.6
20260506003011 60 0.0 0.0 0.04 0.20 0.20 95 1005.5
20260506001510 60 0.0 0.0 0.04 0.19 0.19 95 1005.6
20260506000009 60 0.0 0.0 0.04 0.18 0.18 94 1005.6